Weather History for KMYP - December, 2011

Change the Weather History Date:

Wednesday, December 7, 2011

  Actual Average (KGUC) Record (KGUC)
Temperature  
Mean Temperature 20 °F -  
Max Temperature 26 °F 27 °F 44 °F (2008)
Min Temperature 14 °F 3 °F -5 °F (2005)
Degree Days  
Heating Degree Days 45    
Moisture  
Dew Point 10 °F    
Average Humidity 67    
Maximum Humidity 86    
Minimum Humidity 55    
Precipitation  
Precipitation 0.00 in - - ()
Sea Level Pressure  
Sea Level Pressure 30.31 in    
Wind  
Wind Speed 18 mph (WSW)    
Max Wind Speed 26 mph    
Max Gust Speed 28 mph    
Visibility 10 miles    
Events      
Averages and records for this station are not official NWS values.
T = Trace of Precipitation, MM = Missing Value Source: NWS Daily Summary

Daily Weather History Graph

Daily Weather History Graph

Search for Another Location

Airport or City:

Trip Planner

Search our weather history database for the weather conditions in past years. The results will help you decide how hot, cold, wet, or windy it might be!

Date:

Astronomy

Dec. 07, 2011 Rise Set
Actual Time 7:09 AM MST 4:44 PM MST
Civil Twilight 6:39 AM MST 5:13 PM MST
Nautical Twilight 6:06 AM MST 5:46 PM MST
Astronomical Twilight 5:34 AM MST 6:18 PM MST
Moon 2:46 PM MST (12/7) 4:28 AM MST (12/7)
Length of Visible Light 10h 34m
Length of Day
9h 35m
Waxing Gibbous, 93% of the Moon is Illuminated
Dec 7
Waxing Gibbous
Dec 10
Full
Dec 17
Last Quarter
Dec 24
New
Dec 31
First Quarter

Hourly Weather History & Observations

Time (MST) Temp. Windchill Dew Point Humidity Pressure Visibility Wind Dir Wind Speed Gust Speed Precip Events Conditions
12:04 AM 15.8 °F -2.3 °F 12.2 °F 86% 30.30 in 10.0 mi West 23.0 mph 27.6 mph N/A   Clear
12:24 AM 14.0 °F -3.9 °F 10.4 °F 86% 30.30 in 10.0 mi WNW 20.7 mph 25.3 mph N/A   Clear
1:04 AM 14.0 °F -2.0 °F 10.4 °F 86% 30.30 in 10.0 mi West 16.1 mph - N/A   Clear
1:24 AM 14.0 °F -2.5 °F 10.4 °F 86% 30.31 in 10.0 mi West 17.3 mph - N/A   Clear
1:44 AM 15.8 °F 0.9 °F 12.2 °F 86% 30.31 in 10.0 mi West 15.0 mph 20.7 mph N/A   Clear
2:04 AM 15.8 °F 2.7 °F 10.4 °F 79% 30.32 in 10.0 mi West 11.5 mph - N/A   Clear
2:24 AM 15.8 °F -0.6 °F 10.4 °F 79% 30.32 in 10.0 mi West 18.4 mph - N/A   Clear
2:44 AM 14.0 °F -2.5 °F 8.6 °F 79% 30.32 in 10.0 mi WSW 17.3 mph - N/A   Clear
3:04 AM 15.8 °F 1.4 °F 10.4 °F 79% 30.32 in 10.0 mi West 13.8 mph - N/A   Clear
3:24 AM 19.4 °F 5.5 °F 10.4 °F 68% 30.32 in 10.0 mi West 15.0 mph 18.4 mph N/A   Clear
3:44 AM 17.6 °F 5.0 °F 10.4 °F 73% 30.32 in 10.0 mi West 11.5 mph - N/A   Clear
4:04 AM 17.6 °F 2.2 °F 8.6 °F 68% 30.32 in 10.0 mi West 17.3 mph - N/A   Clear
4:24 AM 15.8 °F 0.3 °F 8.6 °F 73% 30.32 in 10.0 mi West 16.1 mph - N/A   Clear
4:44 AM 17.6 °F 2.2 °F 10.4 °F 73% 30.32 in 10.0 mi West 17.3 mph - N/A   Clear
5:04 AM 17.6 °F 2.2 °F 10.4 °F 73% 30.33 in 10.0 mi West 17.3 mph - N/A   Clear
5:24 AM 17.6 °F 0.9 °F 10.4 °F 73% 30.33 in 10.0 mi West 20.7 mph - N/A   Clear
5:43 AM 17.6 °F 1.3 °F 10.4 °F 73% 30.34 in 10.0 mi West 19.6 mph - N/A   Clear
6:23 AM 19.4 °F 4.1 °F 10.4 °F 68% 30.34 in 10.0 mi West 18.4 mph 21.9 mph N/A   Clear
6:43 AM 19.4 °F 1.4 °F 10.4 °F 68% 30.34 in 10.0 mi West 26.5 mph - N/A   Clear
7:03 AM 19.4 °F 2.8 °F 8.6 °F 63% 30.35 in 10.0 mi West 21.9 mph - N/A   Clear
7:23 AM 19.4 °F 4.5 °F 8.6 °F 63% 30.36 in 10.0 mi West 17.3 mph - N/A   Clear
7:43 AM 19.4 °F 6.0 °F 8.6 °F 63% 30.36 in 10.0 mi West 13.8 mph - N/A   Clear
8:03 AM 21.2 °F 9.5 °F 8.6 °F 58% 30.36 in 10.0 mi West 11.5 mph - N/A   Clear
8:23 AM 19.4 °F 8.6 °F 8.6 °F 63% 30.37 in 10.0 mi WSW 9.2 mph - N/A   Clear
8:43 AM 19.4 °F 7.2 °F 8.6 °F 63% 30.37 in 10.0 mi WSW 11.5 mph - N/A   Clear
9:03 AM 21.2 °F 8.3 °F 8.6 °F 58% 30.38 in 10.0 mi WSW 13.8 mph - N/A   Clear
9:23 AM 19.4 °F 5.0 °F 8.6 °F 63% 30.38 in 10.0 mi WSW 16.1 mph - N/A   Clear
9:43 AM 19.4 °F 5.0 °F 8.6 °F 63% 30.38 in 10.0 mi WSW 16.1 mph - N/A   Clear
10:03 AM 19.4 °F 5.0 °F 8.6 °F 63% 30.38 in 10.0 mi WSW 16.1 mph - N/A   Clear
10:23 AM 21.2 °F 7.3 °F 10.4 °F 63% 30.38 in 10.0 mi SW 16.1 mph - N/A   Clear
10:43 AM 21.2 °F 7.3 °F 10.4 °F 63% 30.37 in 10.0 mi SW 16.1 mph - N/A   Clear
11:23 AM 23.0 °F 10.1 °F 12.2 °F 63% 30.35 in 10.0 mi SW 15.0 mph - N/A   Clear
11:43 AM 23.0 °F 11.1 °F 10.4 °F 59% 30.34 in 10.0 mi SW 12.7 mph - N/A   Clear
12:03 PM 24.8 °F 11.9 °F 12.2 °F 59% 30.33 in 10.0 mi WSW 16.1 mph - N/A   Clear
12:23 PM 26.6 °F 13.8 °F 12.2 °F 55% 30.32 in 10.0 mi WSW 17.3 mph - N/A   Clear
12:43 PM 26.6 °F 14.3 °F 12.2 °F 55% 30.31 in 10.0 mi WSW 16.1 mph - N/A   Clear
1:03 PM 24.8 °F 12.4 °F 12.2 °F 59% 30.30 in 10.0 mi WSW 15.0 mph - N/A   Clear
1:23 PM 24.8 °F 11.5 °F 12.2 °F 59% 30.29 in 10.0 mi WSW 17.3 mph - N/A   Clear
1:43 PM 24.8 °F 10.7 °F 12.2 °F 59% 30.29 in 10.0 mi WSW 19.6 mph - N/A   Clear
2:03 PM 24.8 °F 9.3 °F 12.2 °F 59% 30.27 in 10.0 mi West 24.2 mph - N/A   Clear
2:23 PM 23.0 °F 7.6 °F 12.2 °F 63% 30.27 in 10.0 mi WSW 21.9 mph - N/A   Clear
2:43 PM 23.0 °F 7.2 °F 12.2 °F 63% 30.27 in 10.0 mi WSW 23.0 mph - N/A   Clear
3:03 PM 23.0 °F 6.9 °F 12.2 °F 63% 30.27 in 10.0 mi WSW 24.2 mph - N/A   Clear
3:23 PM 23.0 °F 7.6 °F 12.2 °F 63% 30.27 in 10.0 mi SW 21.9 mph - N/A   Clear
3:43 PM 21.2 °F 5.6 °F 10.4 °F 63% 30.27 in 10.0 mi SW 20.7 mph - N/A   Clear
4:03 PM 21.2 °F 5.2 °F 10.4 °F 63% 30.27 in 10.0 mi WSW 21.9 mph - N/A   Clear
4:23 PM 21.2 °F 6.4 °F 8.6 °F 58% 30.27 in 10.0 mi WSW 18.4 mph 24.2 mph N/A   Clear
4:43 PM 19.4 °F 3.2 °F 8.6 °F 63% 30.27 in 10.0 mi WSW 20.7 mph - N/A   Clear
5:03 PM 19.4 °F 3.6 °F 8.6 °F 63% 30.26 in 10.0 mi WSW 19.6 mph - N/A   Clear
5:23 PM 17.6 °F 0.5 °F 8.6 °F 68% 30.26 in 10.0 mi WSW 21.9 mph - N/A   Clear
5:43 PM 19.4 °F 2.5 °F 8.6 °F 63% 30.26 in 10.0 mi WSW 23.0 mph - N/A   Clear
6:03 PM 19.4 °F 4.1 °F 8.6 °F 63% 30.27 in 10.0 mi West 18.4 mph - N/A   Clear
6:23 PM 19.4 °F 3.6 °F 8.6 °F 63% 30.25 in 10.0 mi West 19.6 mph - N/A   Clear
6:43 PM 19.4 °F 4.1 °F 8.6 °F 63% 30.25 in 10.0 mi WSW 18.4 mph - N/A   Clear
7:03 PM 17.6 °F 2.2 °F 6.8 °F 63% 30.25 in 10.0 mi WSW 17.3 mph - N/A   Clear
7:23 PM 17.6 °F 2.7 °F 8.6 °F 68% 30.25 in 10.0 mi SW 16.1 mph - N/A   Clear
7:43 PM 17.6 °F 1.3 °F 6.8 °F 63% 30.25 in 10.0 mi SW 19.6 mph - N/A   Clear
8:03 PM 17.6 °F 0.1 °F 5.0 °F 58% 30.24 in 10.0 mi SW 23.0 mph - N/A   Clear
8:23 PM 17.6 °F 0.1 °F 6.8 °F 63% 30.24 in 10.0 mi SW 23.0 mph - N/A   Clear
8:43 PM 17.6 °F 0.1 °F 6.8 °F 63% 30.23 in 10.0 mi WSW 23.0 mph - N/A   Clear
9:03 PM 15.8 °F -2.3 °F 6.8 °F 68% 30.23 in 10.0 mi WSW 23.0 mph - N/A   Clear
9:23 PM 15.8 °F -2.3 °F 8.6 °F 73% 30.23 in 10.0 mi WSW 23.0 mph - N/A   Clear
9:43 PM 15.8 °F -3.4 °F 8.6 °F 73% 30.22 in 10.0 mi West 26.5 mph - N/A   Clear
10:03 PM 17.6 °F -1.6 °F 8.6 °F 68% 30.21 in 10.0 mi West 28.8 mph - N/A   Clear
11:23 PM 19.4 °F 1.4 °F 8.6 °F 63% 30.20 in 10.0 mi West 26.5 mph - N/A   Clear
11:43 PM 19.4 °F 0.8 °F 8.6 °F 63% 30.20 in 10.0 mi West 28.8 mph - N/A   Clear